Location: Mercogliano
(40.9167°N, 14.7333°E)
Time: 14:41:12
(UTC+00:00)

Meteor 2-9 Rocket - Pass Details

Date: 18 September 2020
Orbit: 791 x 896 km, 81.3° (Epoch: 29 October)

Event Time Altitude Azimuth Distance (km) Brightness Sun altitude
Rises 17:48:37 0° 186° (S) 3,495 7.4 -9.1°
Reaches altitude 10° 17:51:03 10° 186° (S) 2,559 6.7 -9.6°
Maximum altitude 17:56:55 87° 98° (E) 899 4.3 -10.7°
Drops below altitude 10° 18:02:46 10° 10° (N) 2,549 6.7 -11.7°
Sets 18:05:12 0° 10° (N) 3,480 7.4 -12.2°
